Total_Precipitation_Accumulation
1.01 1.00 1.03 1.18 1.19 1.25 1.25 1.03 0.85 0.84 0.85 0.87 0.78 0.75 0.77 0.76 0.78 0.85 0.91 0.89 0.87 1.02 1.18 1.22 1.21 1.14 1.07 1.03 0.99 0.98 0.92 0.87 0.82 0.75 0.63 0.55 0.53 0.52 0.54 0.56 0.55 0.55 0.55
1.20 1.22 1.27 1.36 1.36 1.50 1.54 1.29 1.13 1.20 1.15 1.15 1.03 0.97 0.94 0.98 0.96 0.96 1.00 1.01 0.92 0.91 1.02 1.18 1.25 1.24 1.23 1.17 1.09 1.03 0.99 0.96 0.91 0.81 0.71 0.63 0.59 0.57 0.56 0.58 0.58 0.58 0.54
1.58 1.65 1.72 1.66 1.58 1.56 1.59 1.52 1.40 1.39 1.39 1.24 1.15 1.15 1.18 1.07 1.00 1.10 1.20 1.21 1.12 1.06 1.07 1.07 1.14 1.25 1.38 1.40 1.36 1.27 1.17 1.08 0.98 0.91 0.84 0.76 0.69 0.65 0.61 0.59 0.60 0.60 0.56
1.84 2.02 2.08 1.87 1.73 1.69 1.77 1.81 1.69 1.65 1.65 1.61 1.39 1.21 1.28 1.27 1.16 1.16 1.20 1.25 1.30 1.23 1.16 1.06 1.07 1.12 1.19 1.31 1.40 1.41 1.32 1.18 1.09 1.03 0.98 0.91 0.83 0.74 0.67 0.63 0.61 0.60 0.60
2.00 2.18 2.24 2.18 1.99 1.96 2.03 1.98 2.09 1.98 1.95 1.78 1.49 1.33 1.22 1.13 1.15 1.14 1.16 1.20 1.20 1.18 1.19 1.18 1.17 1.16 1.19 1.28 1.34 1.37 1.36 1.31 1.22 1.14 1.09 1.04 0.95 0.84 0.74 0.69 0.66 0.65 0.66
2.17 2.37 2.41 2.44 2.31 2.31 2.39 2.34 2.34 2.19 1.98 1.81 1.59 1.43 1.22 1.03 1.01 1.07 1.08 1.05 0.99 0.96 0.97 1.00 1.10 1.09 1.14 1.20 1.28 1.44 1.61 1.59 1.43 1.29 1.23 1.18 1.08 0.95 0.82 0.77 0.73 0.71 0.70
2.82 2.96 2.89 2.79 2.62 2.54 2.51 2.42 2.31 2.21 2.06 1.97 1.86 1.63 1.32 1.04 0.93 0.90 0.93 0.91 0.85 0.83 0.81 0.85 0.92 0.94 0.99 1.06 1.14 1.28 1.52 1.63 1.56 1.45 1.34 1.25 1.17 1.08 0.99 0.90 0.84 0.81 0.79
3.45 3.40 3.29 3.03 2.78 2.58 2.43 2.30 2.16 2.03 1.91 1.87 1.86 1.81 1.57 1.29 1.00 0.81 0.85 0.86 0.84 0.85 0.84 0.81 0.82 0.83 0.83 0.88 0.98 1.09 1.20 1.26 1.31 1.36 1.28 1.17 1.13 1.11 1.10 1.07 1.03 0.99 0.95
3.29 3.18 3.07 2.93 2.71 2.52 2.35 2.29 2.21 2.10 1.96 1.92 1.90 1.94 1.76 1.41 1.09 0.89 0.81 0.82 0.84 0.85 0.84 0.82 0.80 0.81 0.82 0.81 0.86 1.00 1.08 1.07 1.07 1.10 1.17 1.15 1.11 1.10 1.11 1.12 1.10 1.09 1.07
2.96 2.81 2.81 2.77 2.64 2.46 2.28 2.14 2.07 2.05 2.06 1.95 1.83 1.66 1.51 1.29 1.23 1.09 0.95 0.87 0.83 0.82 0.80 0.77 0.76 0.77 0.80 0.82 0.90 0.98 1.02 0.97 0.96 0.96 0.98 1.04 1.07 1.07 1.07 1.07 1.11 1.16 1.19
2.70 2.56 2.54 2.46 2.29 2.16 2.03 1.88 1.78 1.77 1.81 1.78 1.69 1.61 1.54 1.40 1.25 1.17 1.09 0.97 0.91 0.85 0.77 0.75 0.75 0.76 0.77 0.78 0.81 0.90 0.96 0.91 0.93 0.95 0.96 0.97 1.01 1.07 1.12 1.17 1.23 1.32 1.40
2.51 2.27 2.06 1.94 1.92 1.79 1.59 1.46 1.40 1.36 1.37 1.42 1.47 1.43 1.36 1.35 1.30 1.26 1.18 1.08 1.03 0.98 0.88 0.84 0.80 0.77 0.78 0.74 0.73 0.87 0.86 0.85 0.86 0.85 0.86 0.89 0.88 0.92 0.98 1.05 1.17 1.32 1.47
2.02 1.83 1.65 1.53 1.48 1.45 1.36 1.24 1.17 1.09 1.07 1.11 1.14 1.21 1.22 1.21 1.16 1.20 1.27 1.25 1.15 1.03 0.89 0.79 0.69 0.62 0.64 0.69 0.78 0.82 0.78 0.77 0.73 0.71 0.74 0.82 0.86 0.85 0.81 0.86 0.94 1.07 1.18
1.54 1.34 1.22 1.14 1.06 0.98 0.96 0.96 1.00 0.97 0.93 0.97 1.00 1.08 1.14 1.12 1.10 1.11 1.15 1.23 1.23 1.09 0.94 0.79 0.66 0.61 0.62 0.66 0.75 0.68 0.68 0.67 0.64 0.64 0.65 0.70 0.78 0.88 0.85 0.78 0.76 0.80 0.84
1.16 1.04 0.93 0.86 0.82 0.78 0.75 0.75 0.78 0.82 0.82 0.84 0.87 0.91 0.96 0.94 0.95 0.98 1.01 1.09 1.15 1.11 1.00 0.80 0.73 0.72 0.73 0.71 0.78 0.71 0.72 0.67 0.64 0.69 0.69 0.73 0.82 0.97 1.01 0.87 0.74 0.66 0.63
0.90 0.83 0.78 0.74 0.70 0.66 0.66 0.68 0.69 0.70 0.73 0.72 0.69 0.65 0.64 0.64 0.66 0.68 0.75 0.84 0.93 1.01 0.99 0.81 0.71 0.75 0.77 0.72 0.81 0.75 0.73 0.73 0.72 0.92 1.04 0.95 0.90 1.07 1.22 1.14 0.96 0.80 0.73
0.70 0.68 0.64 0.61 0.59 0.59 0.58 0.58 0.55 0.53 0.51 0.51 0.50 0.51 0.53 0.52 0.54 0.55 0.58 0.68 0.81 0.93 1.03 0.86 0.73 0.76 0.82 0.79 0.82 0.79 0.76 0.76 0.87 1.26 1.49 1.67 1.39 1.27 1.35 1.28 1.13 0.94 0.80
0.62 0.61 0.55 0.50 0.47 0.45 0.42 0.39 0.38 0.36 0.39 0.41 0.43 0.46 0.48 0.49 0.48 0.49 0.53 0.61 0.73 0.87 1.03 0.99 0.83 0.84 0.86 0.84 0.91 0.92 0.82 0.72 0.79 1.23 1.56 1.89 1.85 1.63 1.62 1.44 1.25 1.01 0.83
0.55 0.52 0.48 0.44 0.40 0.39 0.37 0.33 0.32 0.32 0.35 0.37 0.40 0.45 0.48 0.54 0.54 0.53 0.59 0.65 0.71 0.79 0.95 1.02 0.94 0.95 0.99 1.02 1.14 1.08 0.95 0.89 0.73 0.98 1.41 1.74 1.92 1.98 2.07 1.91 1.59 1.21 0.91
0.51 0.53 0.52 0.42 0.34 0.30 0.31 0.29 0.26 0.28 0.31 0.33 0.38 0.44 0.49 0.57 0.62 0.65 0.66 0.69 0.74 0.83 0.91 1.01 1.02 1.05 1.10 1.16 1.21 1.19 1.04 0.91 0.81 0.82 1.25 1.73 2.05 2.10 2.29 2.41 2.10 1.59 1.15
0.47 0.46 0.46 0.43 0.37 0.30 0.27 0.25 0.23 0.25 0.31 0.36 0.40 0.42 0.46 0.56 0.65 0.62 0.58 0.61 0.72 0.88 0.94 1.03 1.06 1.04 1.01 1.12 1.14 1.00 0.90 0.82 0.75 0.76 0.94 1.36 2.04 2.37 2.43 2.49 2.38 1.87 1.37
0.48 0.44 0.43 0.41 0.38 0.29 0.28 0.26 0.23 0.26 0.33 0.40 0.44 0.45 0.44 0.47 0.46 0.47 0.53 0.58 0.67 0.85 1.11 1.24 1.16 1.06 0.93 0.93 0.97 0.92 0.90 0.86 0.82 0.65 0.67 0.98 1.56 2.28 2.54 2.54 2.43 1.86 1.34
0.45 0.42 0.39 0.37 0.36 0.32 0.28 0.25 0.24 0.28 0.37 0.45 0.48 0.48 0.41 0.37 0.43 0.47 0.50 0.54 0.64 0.77 0.99 1.30 1.35 1.09 0.99 0.93 0.95 0.98 1.00 1.02 0.94 0.69 0.69 0.95 1.34 2.00 2.24 2.29 2.17 1.59 1.18
0.42 0.43 0.41 0.39 0.37 0.31 0.27 0.25 0.25 0.30 0.39 0.44 0.46 0.47 0.48 0.48 0.45 0.45 0.47 0.56 0.69 0.80 0.89 0.96 1.22 1.04 0.85 0.83 0.87 0.89 0.95 0.96 0.89 0.73 0.71 0.96 1.29 1.75 1.80 1.89 1.84 1.43 1.11
0.41 0.37 0.34 0.35 0.37 0.35 0.28 0.26 0.26 0.32 0.38 0.40 0.40 0.39 0.37 0.41 0.43 0.52 0.63 0.81 0.93 1.05 1.01 1.11 1.23 1.18 1.05 0.96 0.83 0.82 0.95 0.96 0.93 0.81 0.74 0.89 1.14 1.31 1.44 1.56 1.47 1.32 1.10
0.38 0.31 0.28 0.30 0.32 0.30 0.21 0.19 0.21 0.29 0.35 0.38 0.40 0.42 0.36 0.33 0.42 0.57 0.80 1.03 1.12 1.19 1.08 1.15 1.35 1.39 1.23 1.19 1.15 1.02 1.03 0.98 0.94 0.92 0.76 0.79 0.98 1.00 1.25 1.33 1.25 1.16 1.11